DW8636 Weather Reports


time (UTC)temp
F
wind
direction
speed
knots
gust
knots
rain 1hr
in
rain 24hr
in
rain mn
in
humidity
%
barometer
mb
20220811235559 79 257 0.0 0.0 0.00 0.00 0.00 60 1009.1
20220811235059 79 257 0.0 0.0 0.00 0.00 0.00 60 1009.1
20220811234559 79 257 0.0 0.0 0.00 0.00 0.00 60 1009.1
20220811234103 79 257 0.0 0.0 0.00 0.00 0.00 59 1009.0
20220811233100 79 257 0.0 0.0 0.00 0.00 0.00 58 1009.0
20220811232602 80 257 0.0 0.0 0.00 0.00 0.00 58 1009.0
20220811232105 80 257 0.0 0.0 0.00 0.00 0.00 58 1009.1
20220811231653 80 257 0.0 0.0 0.00 0.00 0.00 58 1009.2
20220811231103 79 257 0.0 0.0 0.00 0.00 0.00 58 1009.3
20220811230557 79 257 0.0 0.0 0.00 0.00 0.00 58 1009.3
20220811230111 79 257 0.0 0.0 0.00 0.00 0.00 58 1009.3
20220811225556 79 257 0.0 0.0 0.00 0.00 0.00 58 1009.3
20220811225103 79 257 0.0 0.0 0.00 0.00 0.00 58 1009.3
20220811224555 80 257 0.0 0.0 0.00 0.00 0.00 57 1009.2
20220811224056 80 257 0.0 0.0 0.00 0.00 0.00 56 1009.4
20220811223106 81 257 0.0 0.0 0.00 0.00 0.00 54 1009.5
20220811222558 82 257 0.0 0.0 0.00 0.00 0.00 54 1009.6
20220811222055 83 257 0.0 0.0 0.00 0.00 0.00 53 1009.4
20220811221556 84 257 0.0 0.0 0.00 0.00 0.00 51 1009.4
20220811221055 85 257 0.0 0.0 0.00 0.00 0.00 50 1009.6
20220811220555 86 257 0.0 0.0 0.00 0.00 0.00 51 1009.5
20220811220057 86 257 0.0 0.0 0.00 0.00 0.00 50 1009.4
20220811215600 86 257 0.0 0.0 0.00 0.00 0.00 50 1009.4
20220811215052 86 257 0.0 0.0 0.00 0.00 0.00 51 1009.3
20220811214553 86 257 0.0 0.0 0.00 0.00 0.00 52 1009.5
20220811214049 85 257 0.0 0.0 0.00 0.00 0.00 52 1009.3
20220811213049 85 257 0.0 0.0 0.00 0.00 0.00 52 1009.4
20220811212547 84 257 0.0 0.0 0.00 0.00 0.00 53 1009.5
20220811212049 84 257 0.0 0.0 0.00 0.00 0.00 53 1009.5
20220811211547 84 257 0.0 0.0 0.00 0.00 0.00 54 1009.3
20220811211050 84 257 0.0 0.0 0.00 0.00 0.00 54 1009.4
20220811210548 84 257 0.0 0.0 0.00 0.00 0.00 54 1009.5
20220811210047 84 257 0.0 0.0 0.00 0.00 0.00 53 1009.6
20220811205544 84 257 0.0 0.0 0.00 0.00 0.00 53 1009.8
20220811205045 84 257 0.0 0.0 0.00 0.00 0.00 53 1009.7
20220811204546 84 257 0.0 0.0 0.00 0.00 0.00 54 1009.7
20220811204049 84 257 0.0 0.0 0.00 0.00 0.00 53 1009.9
20220811203056 83 257 0.0 0.0 0.00 0.00 0.00 54 1010.1
20220811202541 83 257 0.0 0.0 0.00 0.00 0.00 56 1010.2
20220811202046 83 257 0.0 0.0 0.00 0.00 0.00 54 1010.2
20220811201545 83 257 0.0 0.0 0.00 0.00 0.00 54 1010.1
20220811201044 84 257 0.0 0.0 0.00 0.00 0.00 52 1010.2
20220811200540 84 257 0.0 0.0 0.00 0.00 0.00 51 1010.3
20220811200041 85 257 0.0 0.0 0.00 0.00 0.00 52 1010.4
20220811195539 84 257 0.0 0.0 0.00 0.00 0.00 53 1010.4
20220811195038 84 257 0.0 0.0 0.00 0.00 0.00 52 1010.4
20220811194537 84 257 0.0 0.0 0.00 0.00 0.00 52 1010.5
20220811194039 84 257 0.0 0.0 0.00 0.00 0.00 52 1010.6
20220811193045 83 257 0.0 0.0 0.00 0.00 0.00 53 1010.8
20220811192535 83 257 0.0 0.0 0.00 0.00 0.00 54 1010.7
20220811192038 83 257 0.0 0.0 0.00 0.00 0.00 54 1010.8
20220811191535 82 257 0.0 0.0 0.00 0.00 0.00 54 1010.8
20220811191034 82 257 0.0 0.0 0.00 0.00 0.00 55 1010.8
20220811190533 82 257 0.0 0.0 0.00 0.00 0.00 56 1010.9
20220811190053 81 257 0.0 0.0 0.00 0.00 0.00 56 1011.1
20220811185529 81 257 0.0 0.0 0.00 0.00 0.00 57 1011.1
20220811185027 80 257 0.0 0.0 0.00 0.00 0.00 59 1011.2
20220811184559 80 257 0.0 0.0 0.00 0.00 0.00 58 1011.2
20220811184027 80 257 0.0 0.0 0.00 0.00 0.00 59 1011.2
20220811183025 80 257 0.0 0.0 0.00 0.00 0.00 59 1011.2
20220811182529 79 257 0.0 0.0 0.00 0.00 0.00 60 1011.3
20220811182023 78 257 0.0 0.0 0.00 0.00 0.00 62 1011.3
20220811181527 77 257 0.0 0.0 0.00 0.00 0.00 64 1011.4
20220811181022 77 257 0.0 0.0 0.00 0.00 0.00 62 1011.3
20220811180526 77 257 0.0 0.0 0.00 0.00 0.00 62 1011.4
20220811180028 78 257 0.0 0.0 0.00 0.00 0.00 62 1011.5
20220811175528 77 257 0.0 0.0 0.00 0.00 0.00 62 1011.4
20220811175023 77 257 0.0 0.0 0.00 0.00 0.00 62 1011.4
20220811174525 77 257 0.0 0.0 0.00 0.00 0.00 63 1011.5
20220811174019 77 257 0.0 0.0 0.00 0.00 0.00 63 1011.7
20220811173035 76 257 0.0 0.0 0.00 0.00 0.00 66 1011.7
20220811172520 75 257 0.0 0.0 0.00 0.00 0.00 68 1011.8
20220811172017 75 257 0.0 0.0 0.00 0.00 0.00 68 1012.1
20220811171520 74 257 0.0 0.0 0.00 0.00 0.00 68 1012.3
20220811171017 74 257 0.0 0.0 0.00 0.00 0.00 68 1012.0
20220811170516 74 257 0.0 0.0 0.00 0.00 0.00 68 1011.9
20220811170023 74 257 0.0 0.0 0.00 0.00 0.00 69 1012.0
20220811165517 74 257 0.0 0.0 0.00 0.00 0.00 68 1012.0
20220811165016 74 257 0.0 0.0 0.00 0.00 0.00 69 1012.1
20220811164518 74 257 0.0 0.0 0.00 0.00 0.00 68 1012.2
20220811164018 74 257 0.0 0.0 0.00 0.00 0.00 69 1012.2
20220811163015 74 257 0.0 0.0 0.00 0.00 0.00 68 1012.2
20220811162515 74 257 0.0 0.0 0.00 0.00 0.00 68 1012.1
20220811162019 74 257 0.0 0.0 0.00 0.00 0.00 68 1012.3
20220811161524 74 257 0.0 0.0 0.00 0.00 0.00 67 1012.0
20220811161016 75 257 0.0 0.0 0.00 0.00 0.00 67 1012.3
20220811160518 75 257 0.0 0.0 0.00 0.00 0.00 66 1012.4
20220811160014 75 257 0.0 0.0 0.00 0.00 0.00 65 1012.5
20220811155513 74 257 0.0 0.0 0.00 0.00 0.00 66 1012.3
20220811155011 73 257 0.0 0.0 0.00 0.00 0.00 68 1012.3
20220811154520 72 257 0.0 0.0 0.00 0.00 0.00 67 1012.3
20220811154012 72 257 0.0 0.0 0.00 0.00 0.00 66 1012.4
20220811153011 72 257 0.0 0.0 0.00 0.00 0.00 67 1012.3
20220811152508 71 257 0.0 0.0 0.00 0.00 0.00 67 1012.5
20220811152012 71 257 0.0 0.0 0.00 0.00 0.00 68 1012.7
20220811151510 70 257 0.0 0.0 0.00 0.00 0.00 69 1012.9
20220811151006 70 257 0.0 0.0 0.00 0.00 0.00 70 1012.6
20220811150506 69 257 0.0 0.0 0.00 0.00 0.00 70 1012.4
20220811150007 69 257 0.0 0.0 0.00 0.00 0.00 70 1012.4
20220811145505 69 257 0.0 0.0 0.00 0.00 0.00 69 1012.3
20220811145012 69 257 0.0 0.0 0.00 0.00 0.00 70 1012.5
20220811144505 69 257 0.0 0.0 0.00 0.00 0.00 70 1012.6
20220811144005 68 257 0.0 0.0 0.00 0.00 0.00 71 1012.6
20220811143008 68 257 0.0 0.0 0.00 0.00 0.00 72 1012.6
20220811142506 68 257 0.0 0.0 0.00 0.00 0.00 72 1012.7
20220811142005 67 257 0.0 0.0 0.00 0.00 0.00 72 1012.0
20220811141505 67 257 0.0 0.0 0.00 0.00 0.00 72 1011.9
20220811141005 67 257 0.0 0.0 0.00 0.00 0.00 73 1012.0
20220811140505 67 257 0.0 0.0 0.00 0.00 0.00 75 1012.2
20220811140013 67 257 0.0 0.0 0.00 0.00 0.00 76 1012.4
20220811135505 66 257 0.0 0.0 0.00 0.00 0.00 76 1012.5
20220811135005 66 257 0.0 0.0 0.00 0.00 0.00 76 1012.2
20220811134519 66 257 0.0 0.0 0.00 0.00 0.00 76 1011.4
20220811134006 67 257 0.0 0.0 0.00 0.00 0.00 76 1011.6
20220811133002 68 257 0.0 0.0 0.00 0.00 0.00 74 1012.4
20220811132602 68 257 0.0 0.0 0.00 0.00 0.00 72 1012.9
20220811132059 68 257 0.0 0.0 0.00 0.00 0.00 71 1013.4
20220811131629 68 257 0.0 0.0 0.00 0.00 0.00 71 1013.8
20220811131100 69 257 0.0 0.0 0.00 0.00 0.00 70 1013.8
20220811130559 69 257 0.0 0.0 0.00 0.00 0.00 70 1013.9
20220811130142 69 257 0.0 0.0 0.00 0.00 0.00 70 1013.7
20220811125558 69 257 0.0 0.0 0.00 0.00 0.00 69 1013.5
20220811125103 69 257 0.0 0.0 0.00 0.00 0.00 69 1013.5
20220811124604 69 257 0.0 0.0 0.00 0.00 0.00 68 1013.6
20220811124059 69 257 0.0 0.0 0.00 0.00 0.00 68 1013.6
20220811123700 69 257 0.0 0.0 0.00 0.00 0.00 67 1013.4
20220811123057 69 257 0.0 0.0 0.00 0.00 0.00 67 1013.4
20220811122557 69 257 0.0 0.0 0.00 0.00 0.00 66 1013.3
20220811122056 69 257 0.0 0.0 0.00 0.00 0.00 66 1013.3
20220811121605 69 257 0.0 0.0 0.00 0.00 0.00 65 1013.2
20220811121056 69 257 0.0 0.0 0.00 0.00 0.00 65 1013.3
20220811120555 69 257 0.0 0.0 0.00 0.00 0.00 65 1013.2
20220811120059 69 257 0.0 0.0 0.00 0.00 0.00 64 1013.4
20220811115554 69 257 0.0 0.0 0.00 0.00 0.00 63 1013.5
20220811115058 69 257 0.0 0.0 0.00 0.00 0.00 62 1013.5
20220811114616 69 257 0.0 0.0 0.00 0.00 0.00 62 1013.5
20220811114054 69 257 0.0 0.0 0.00 0.00 0.00 61 1013.3
20220811113654 68 257 0.0 0.0 0.00 0.00 0.00 61 1013.5
20220811113053 68 257 0.0 0.0 0.00 0.00 0.00 61 1013.4
20220811112556 69 257 0.0 0.0 0.00 0.00 0.00 60 1013.5
20220811112058 69 257 0.0 0.0 0.00 0.00 0.00 60 1013.4
20220811111556 69 257 0.0 0.0 0.00 0.00 0.00 59 1013.3
20220811111055 69 257 0.0 0.0 0.00 0.00 0.00 59 1013.5
20220811110549 69 257 0.0 0.0 0.00 0.00 0.00 58 1013.5
20220811110059 69 257 0.0 0.0 0.00 0.00 0.00 58 1013.6
20220811105547 69 257 0.0 0.0 0.00 0.00 0.00 58 1013.7
20220811105049 69 257 0.0 0.0 0.00 0.00 0.00 58 1013.7
20220811104603 69 257 0.0 0.0 0.00 0.00 0.00 58 1013.9
20220811104045 69 257 0.0 0.0 0.00 0.00 0.00 57 1014.1
20220811103644 69 257 0.0 0.0 0.00 0.00 0.00 57 1014.4
20220811103044 69 257 0.0 0.0 0.00 0.00 0.00 57 1014.4
20220811102543 69 257 0.0 0.0 0.00 0.00 0.00 57 1014.5
20220811102044 69 257 0.0 0.0 0.00 0.00 0.00 57 1014.5
20220811101542 69 257 0.0 0.0 0.00 0.00 0.00 56 1014.4
20220811101044 69 257 0.0 0.0 0.00 0.00 0.00 56 1014.4
20220811100541 70 257 0.0 0.0 0.00 0.00 0.00 58 1014.4
20220811100042 70 257 0.0 0.0 0.00 0.00 0.00 55 1014.4
20220811095544 70 257 0.0 0.0 0.00 0.00 0.00 55 1014.4
20220811095041 70 257 0.0 0.0 0.00 0.00 0.00 55 1014.3
20220811094547 70 257 0.0 0.0 0.00 0.00 0.00 55 1014.4
20220811094040 70 257 0.0 0.0 0.00 0.00 0.00 55 1014.3
20220811093640 70 257 0.0 0.0 0.00 0.00 0.00 55 1014.4
20220811093048 70 257 0.0 0.0 0.00 0.00 0.00 55 1014.4
20220811092540 70 257 0.0 0.0 0.00 0.00 0.00 54 1014.4
20220811092043 70 257 0.0 0.0 0.00 0.00 0.00 54 1014.4
20220811091539 70 257 0.0 0.0 0.00 0.00 0.00 54 1014.4
20220811091042 70 257 0.0 0.0 0.00 0.00 0.00 54 1014.5
20220811090537 70 257 0.0 0.0 0.00 0.00 0.00 54 1014.7
20220811090037 70 257 0.0 0.0 0.00 0.00 0.00 53 1014.8
20220811085538 70 257 0.0 0.0 0.00 0.00 0.00 53 1014.9
20220811085039 70 257 0.0 0.0 0.00 0.00 0.00 53 1014.9
20220811084540 71 257 0.0 0.0 0.00 0.00 0.00 53 1015.1
20220811084041 71 257 0.0 0.0 0.00 0.00 0.00 53 1015.0
20220811083640 70 257 0.0 0.0 0.00 0.00 0.00 53 1014.9
20220811083038 70 257 0.0 0.0 0.00 0.00 0.00 53 1014.9
20220811082535 70 257 0.0 0.0 0.00 0.00 0.00 53 1015.0
20220811082038 70 257 0.0 0.0 0.00 0.00 0.00 53 1015.1
20220811081602 70 257 0.0 0.0 0.00 0.00 0.00 52 1015.2
20220811081037 70 257 0.0 0.0 0.00 0.00 0.00 52 1015.3
20220811080535 70 257 0.0 0.0 0.00 0.00 0.00 52 1015.4
20220811080036 70 257 0.0 0.0 0.00 0.00 0.00 52 1015.3
20220811075534 70 257 0.0 0.0 0.00 0.00 0.00 52 1015.3
20220811075032 70 257 0.0 0.0 0.00 0.00 0.00 52 1015.4
20220811074545 70 257 0.0 0.0 0.00 0.00 0.00 52 1015.6
20220811074030 70 257 0.0 0.0 0.00 0.00 0.00 52 1015.7
20220811073634 70 257 0.0 0.0 0.00 0.00 0.00 52 1015.7
20220811073035 70 257 0.0 0.0 0.00 0.00 0.00 52 1015.8
20220811072536 70 257 0.0 0.0 0.00 0.00 0.00 52 1015.7
20220811072035 70 257 0.0 0.0 0.00 0.00 0.00 52 1015.8
20220811071535 70 257 0.0 0.0 0.00 0.00 0.00 52 1016.0
20220811071034 71 257 0.0 0.0 0.00 0.00 0.00 51 1015.9
20220811070545 71 257 0.0 0.0 0.00 0.00 0.00 51 1016.0
20220811070032 71 257 0.0 0.0 0.00 0.00 0.00 51 1016.0
20220811065531 71 257 0.0 0.0 0.00 0.00 0.00 51 1016.1
20220811065032 71 257 0.0 0.0 0.00 0.00 0.00 51 1016.1
20220811064529 71 257 0.0 0.0 0.00 0.00 0.00 51 1016.2
20220811064034 71 257 0.0 0.0 0.00 0.00 0.00 51 1016.2
20220811063636 71 257 0.0 0.0 0.00 0.00 0.00 51 1016.3
20220811063041 71 257 0.0 0.0 0.00 0.00 0.00 51 1016.3
20220811062528 71 257 0.0 0.0 0.00 0.00 0.00 51 1016.4
20220811062029 71 257 0.0 0.0 0.00 0.00 0.00 52 1016.4
20220811061527 70 257 0.0 0.0 0.00 0.00 0.00 52 1016.1
20220811061026 70 257 0.0 0.0 0.00 0.00 0.00 52 1016.2
20220811060527 70 257 0.0 0.0 0.00 0.00 0.00 53 1016.3
20220811060029 70 257 0.0 0.0 0.00 0.00 0.00 53 1016.1
20220811055528 71 257 0.0 0.0 0.00 0.00 0.00 52 1016.3
20220811055026 71 257 0.0 0.0 0.00 0.00 0.00 52 1016.6
20220811054533 71 257 0.0 0.0 0.00 0.00 0.00 52 1016.7
20220811054024 71 257 0.0 0.0 0.00 0.00 0.00 52 1016.5
20220811053629 71 257 0.0 0.0 0.00 0.00 0.00 52 1016.3
20220811053033 71 257 0.0 0.0 0.00 0.00 0.00 52 1016.3
20220811052524 70 257 0.0 0.0 0.00 0.00 0.00 52 1016.3
20220811052022 71 257 0.0 0.0 0.00 0.00 0.00 52 1016.3
20220811051522 71 257 0.0 0.0 0.00 0.00 0.00 52 1016.4
20220811051029 71 257 0.0 0.0 0.00 0.00 0.00 51 1016.4
20220811050527 71 257 0.0 0.0 0.00 0.00 0.00 51 1016.3
20220811050021 71 257 0.0 0.0 0.00 0.00 0.00 51 1016.2
20220811045529 71 257 0.0 0.0 0.00 0.00 0.00 51 1016.3
20220811045021 71 257 0.0 0.0 0.00 0.00 0.00 51 1016.3
20220811044536 72 257 0.0 0.0 0.00 0.00 0.00 50 1016.3
20220811044020 72 257 0.0 0.0 0.00 0.00 0.00 50 1016.4
20220811043621 72 257 0.0 0.0 0.00 0.00 0.00 49 1016.3
20220811043036 72 257 0.0 0.0 0.00 0.00 0.00 49 1016.4
20220811042524 72 257 0.0 0.0 0.00 0.00 0.00 49 1016.3
20220811042021 72 257 0.0 0.0 0.00 0.00 0.00 49 1016.3
20220811041521 73 257 0.0 0.0 0.00 0.00 0.00 49 1016.3
20220811041021 73 257 0.0 0.0 0.00 0.00 0.00 49 1016.3
20220811040523 73 257 0.0 0.0 0.00 0.00 0.00 48 1016.3
20220811040023 73 257 0.0 0.0 0.00 0.00 0.00 48 1016.3
20220811035522 73 257 0.0 0.0 0.00 0.00 0.00 48 1016.3
20220811035022 74 257 0.0 0.0 0.00 0.00 0.00 47 1016.2
20220811034529 74 257 0.0 0.0 0.00 0.00 0.00 47 1016.1
20220811034020 74 257 0.0 0.0 0.00 0.00 0.00 46 1016.2
20220811033620 74 257 0.0 0.0 0.00 0.00 0.00 46 1016.3
20220811033022 74 257 0.0 0.0 0.00 0.00 0.00 45 1016.3
20220811032522 75 257 0.0 0.0 0.00 0.00 0.00 45 1016.3
20220811032029 75 257 0.0 0.0 0.00 0.00 0.00 45 1016.2
20220811030020 76 257 0.0 0.0 0.00 0.00 0.00 44 1015.9
20220811025515 76 257 0.0 0.0 0.00 0.00 0.00 44 1015.9
20220811025018 77 257 0.0 0.0 0.00 0.00 0.00 44 1015.8
20220811024533 77 257 0.0 0.0 0.00 0.00 0.00 44 1015.8
20220811024016 77 257 0.0 0.0 0.00 0.00 0.00 44 1015.8
20220811023616 78 257 0.0 0.0 0.00 0.00 0.00 43 1015.8
20220811023034 78 257 0.0 0.0 0.00 0.00 0.00 42 1015.8
20220811022515 78 257 0.0 0.0 0.00 0.00 0.00 42 1015.8
20220811022013 79 257 0.0 0.0 0.00 0.00 0.00 41 1015.8
20220811021514 79 257 0.0 0.0 0.00 0.00 0.00 41 1015.7
20220811021016 79 257 0.0 0.0 0.00 0.00 0.00 41 1015.7
20220811020514 80 257 0.0 0.0 0.00 0.00 0.00 41 1015.7
20220811020013 80 257 0.0 0.0 0.00 0.00 0.00 40 1015.6
20220811015513 80 257 0.0 0.0 0.00 0.00 0.00 40 1015.5
20220811015013 81 257 0.0 0.0 0.00 0.00 0.00 40 1015.5
20220811014512 81 257 0.0 0.0 0.00 0.00 0.00 40 1015.3
20220811014012 81 257 0.0 0.0 0.00 0.00 0.00 39 1015.3
20220811013613 82 257 0.0 0.0 0.00 0.00 0.00 39 1015.3
20220811013017 82 257 0.0 0.0 0.00 0.00 0.00 39 1015.3
20220811012517 82 257 0.0 0.0 0.00 0.00 0.00 38 1015.3
20220811012017 82 257 0.0 0.0 0.00 0.00 0.00 38 1015.2
20220811011521 82 257 0.0 0.0 0.00 0.00 0.00 38 1015.3
20220811011024 83 257 0.0 0.0 0.00 0.00 0.00 38 1015.2
20220811010524 83 257 0.0 0.0 0.00 0.00 0.00 38 1015.3
20220811010024 83 257 0.0 0.0 0.00 0.00 0.00 37 1015.3
20220811005517 83 257 0.0 0.0 0.00 0.00 0.00 38 1015.3
20220811005024 83 257 0.0 0.0 0.00 0.00 0.00 37 1015.3
20220811004516 84 257 0.0 0.0 0.00 0.00 0.00 37 1015.4
20220811004015 84 257 0.0 0.0 0.00 0.00 0.00 37 1015.4
20220811003615 84 257 0.0 0.0 0.00 0.00 0.00 36 1015.3
20220811003013 84 257 0.0 0.0 0.00 0.00 0.00 36 1015.3
20220811002512 84 257 0.0 0.0 0.00 0.00 0.00 37 1015.4
20220811002011 84 257 0.0 0.0 0.00 0.00 0.00 36 1015.3
20220811001509 85 257 0.0 0.0 0.00 0.00 0.00 36 1015.5
20220811001010 85 257 0.0 0.0 0.00 0.00 0.00 36 1015.4
20220811000511 85 257 0.0 0.0 0.00 0.00 0.00 35 1015.5
20220811000009 85 257 0.0 0.0 0.00 0.00 0.00 35 1015.5